Location: Unspecified
(0.0000°N, 0.0000°E)
Time: 09:34:57
(UTC+00:00)

ATLAS 5 CENTAUR DEB - Visible Passes

Search period start: 10 December 2025 00:00
Search period end: 20 December 2025 00:00
Orbit: 7595 x 35809 km, 19.6° (Epoch: 15 November)

Date Brightness Start Highest point End Pass type
(mag) Time Alt. Az. Time Alt. Az. Time Alt. Az.
10 Dec ? 00:13:37 10° WSW 03:16:36 46° WSW 12:16:41 10° E visible
11 Dec ? 03:47:00 10° WSW 05:09:02 15° WSW 07:03:38 10° WSW visible
12 Dec ? 15:44:55 10° WNW 16:26:47 87° NNE 03:41:26 10° ENE visible
13 Dec ? 18:10:01 10° WNW 18:56:15 73° SSW 06:23:54 10° ENE daylight
14 Dec ? 20:34:41 10° W 03:20:05 78° SW 08:50:18 10° ENE visible
15 Dec ? 23:07:32 10° WSW 02:28:35 54° SW 11:15:09 10° E visible
17 Dec ? 02:11:53 10° WSW 04:15:40 23° WSW 13:47:09 10° E visible
18 Dec ? 14:42:25 10° WNW 15:26:15 82° NNE 16:54:56 10° ESE visible
